Regional Weather Roundup
Issued by NWS Northern Indiana

Home | Current Version | Previous Version | Text Only | Print | Product List | Glossary Off
Versions: 1 2 3 4 5 6 7 8 9 10 11 12 13 14 15 16 17 18 19 20 21 22 23 24 25 26 27 28 29 30 31 32 33 34 35 36 37 38 39 40 41 42 43 44 45 46 47 48 49 50

000
ASUS43 KIWX 210510
RWRIWX

KIWX WEATHER ROUNDUP
NATIONAL WEATHER SERVICE NORTHERN INDIANA
100 AM EDT THU AUG 21 2014

NOTE: "FAIR" INDICATES FEW OR NO CLOUDS BELOW 12,000 FEET WITH NO
SIGNIFICANT WEATHER AND/OR OBSTRUCTIONS TO VISIBILITY.

* THESE STATIONS ARE NOT UNDER NWS QUALITY CONTROL. THEY ALSO MAY NOT
  REPORT WEATHER SUCH AS PRECIPITATION OR FOG.

INZ001>027-210600-
NORTHERN INDIANA

CITY           SKY/WX    TMP DP  RH WIND       PRES   REMARKS
GARY*          CLOUDY    76  65  69 SW3       29.96F
VALPARAISO     CLOUDY    71  66  84 SW5       29.98S
MICHIGAN CITY* MOCLDY    72  70  94 CALM      29.97S
LAPORTE*       MOCLDY    71  71 100 SW5       29.97F
KNOX*          CLOUDY    69  65  88 CALM      29.96F
SOUTH BEND     MOCLDY    74  68  81 S5        29.98F
GOSHEN         CLOUDY    75  70  84 SW5       29.97F
MONTICELLO*    CLOUDY    70  68  92 S5        29.99F
LOGANSPORT*    MOCLDY    68  64  88 CALM      30.01F
ROCHESTER*     MOCLDY    72  68  88 SW6       30.00S
WARSAW*        CLOUDY    72  70  94 CALM      29.99F
ANGOLA*        CLEAR     70  61  73 CALM      29.99F
FORT WAYNE     MOCLDY    70  67  90 W6        30.01R
HUNTINGTON*    PTCLDY    70  67  92 SW3       30.00F
PERU/GRISSOM   MOCLDY    69  69 100 S5        30.01S
MARION*        PTCLDY    66  64  91 SW6       30.03S

$$
INZ028>050-210600-
CENTRAL INDIANA

CITY           SKY/WX    TMP DP  RH WIND       PRES   REMARKS
LAFAYETTE      CLOUDY    70  68  93 CALM      30.01R
KOKOMO*        MOCLDY    68  64  88 S6        30.02S
MUNCIE*        PTCLDY    72  66  81 SW7       30.03R
INDIANAPOLIS   CLOUDY    72  68  87 SW5       30.02R

$$
MIZ043>046-050>051-056>058-064>065-071>073-077>080-210600-
SOUTHWEST LOWER MICHIGAN

CITY           SKY/WX    TMP DP  RH WIND       PRES   REMARKS
BATTLE CREEK   MOCLDY    70  65  84 CALM      29.99R
BENTON HARBOR  MOCLDY    72  66  81 CALM      29.96R
COLDWATER*     MOCLDY    69  67  95 CALM      29.99S
HILLSDALE*     MOCLDY    67  67 100 NW3       30.00S
HOLLAND        PTCLDY    69  65  86 CALM      29.98R
GRAND RAPIDS   CLOUDY    68  66  93 CALM      29.98R
KALAMAZOO      MOCLDY    71  65  81 CALM      29.98S
STURGIS*       MOCLDY    70  66  88 S5        29.98S
THREE RIVERS*  FAIR      71  68  90 CALM      29.98S

$$
OHZ001>008-015>018-024>025-210600-
NORTHWEST OHIO

CITY           SKY/WX    TMP DP  RH WIND       PRES   REMARKS
WAUSEON*       FAIR      66  64  94 SW3       29.99R
DEFIANCE       MOCLDY    70  67  90 SW3       29.99R
FINDLAY        PTCLDY    68  65  90 S6        29.98S
TOLEDO EXPRESS PTCLDY    67  65  93 CALM      29.97S
TOLEDO METCALF PTCLDY    69  64  84 CALM      29.98S
LIMA           CLEAR     72  65  78 SW6       30.01S

$$
&&



USA.gov is the U.S. government's official web portal to all federal, state and local government web resources and services.